Location: Beekmeers
(50.8953°N, 3.6968°E)
Time: 12:12:14
(UTC+00:00)

SENTINEL 1B - Pass Details

Date: 15 October 2025
Orbit: 561 x 585 km, 98.1° (Epoch: 16 November)

Event Time Altitude Azimuth Distance (km) Brightness Sun altitude
Exits shadow 21:05:34 11° 307° (NW) 1,837 8.5 -38.4°
Drops below altitude 10° 21:05:54 10° 311° (NW) 1,919 8.6 -38.5°
Sets 21:08:46 0° 332° (NNW) 2,828 9.6 -38.8°
